DW9750 Weather Reports


time (UTC)temp
F
wind
direction
speed
knots
gust
knots
rain 1hr
in
rain 24hr
in
rain mn
in
humidity
%
barometer
mb
20260831110017 74 114 0.0 0.0 0.00 0.00 0.00 89 1013.6
20260831104522 75 114 0.0 0.0 0.00 0.00 0.00 87 1013.6
20260831103014 75 137 0.0 0.0 0.00 0.00 0.00 87 1013.6
20260831101513 75 116 0.0 0.0 0.00 0.00 0.00 87 1013.7
20260831100019 75 133 0.0 1.7 0.00 0.00 0.00 87 1013.8
20260831094513 75 144 0.0 0.0 0.00 0.00 0.00 86 1013.7
20260831093013 75 144 0.0 2.6 0.00 0.00 0.00 85 1013.7
20260831091510 76 164 0.0 0.9 0.00 0.00 0.00 84 1013.7
20260831090009 76 164 0.0 0.9 0.00 0.00 0.00 85 1013.6
20260831084508 76 164 0.0 0.0 0.00 0.00 0.00 84 1013.5
20260831083006 76 164 0.0 1.7 0.00 0.00 0.00 83 1013.5
20260831081505 76 106 0.0 1.7 0.00 0.00 0.00 82 1013.7
20260831080011 77 154 0.0 4.3 0.00 0.00 0.00 81 1013.7
20260831074501 77 172 0.0 3.5 0.00 0.00 0.00 80 1013.8
20260831073103 77 174 0.0 3.5 0.00 0.00 0.00 78 1013.9
20260831071558 77 194 0.0 1.7 0.00 0.00 0.00 76 1013.9
20260831070112 78 99 0.0 3.5 0.00 0.00 0.00 75 1013.8
20260831064554 79 94 0.9 6.1 0.00 0.00 0.00 73 1013.8
20260831063054 79 91 0.0 3.5 0.00 0.00 0.00 72 1013.9
20260831061551 79 106 1.7 5.2 0.00 0.00 0.00 71 1013.8
20260831060048 80 80 0.9 5.2 0.00 0.00 0.00 70 1013.6
20260831054545 80 81 0.9 3.5 0.00 0.00 0.00 69 1013.4
20260831053044 81 88 2.6 6.1 0.00 0.00 0.00 67 1013.2
20260831051544 82 109 1.7 7.0 0.00 0.00 0.00 66 1013.0
20260831050037 82 73 1.7 5.2 0.00 0.00 0.00 65 1012.9
20260831044547 83 80 3.5 7.0 0.00 0.00 0.00 64 1012.9
20260831043036 83 76 1.7 7.0 0.00 0.00 0.00 65 1012.9
20260831041547 83 105 2.6 6.1 0.00 0.00 0.00 65 1012.7
20260831040035 84 57 2.6 6.1 0.00 0.00 0.00 64 1012.6
20260831034534 84 94 1.7 5.2 0.00 0.00 0.00 63 1012.4
20260831033034 85 97 2.6 6.1 0.00 0.00 0.00 63 1012.3
20260831031534 85 64 2.6 7.0 0.00 0.00 0.00 62 1012.3
20260831030032 84 102 0.9 4.3 0.00 0.00 0.00 61 1012.1
20260831024533 84 89 0.9 4.3 0.00 0.00 0.00 59 1012.0
20260831023031 84 100 0.0 1.7 0.00 0.00 0.00 58 1011.7
20260831021537 84 95 0.0 0.0 0.00 0.00 0.00 56 1011.3
20260831020030 84 80 0.9 1.7 0.00 0.00 0.00 54 1011.0
20260831014529 85 71 0.0 0.0 0.00 0.00 0.00 54 1010.9
20260831013029 86 71 0.0 0.0 0.00 0.00 0.00 52 1010.8
20260831011531 87 71 0.9 2.6 0.00 0.00 0.00 51 1010.8
20260831010026 89 80 1.7 2.6 0.00 0.00 0.00 49 1010.8
20260831004528 91 102 0.9 5.2 0.00 0.00 0.00 46 1010.7
20260831003026 92 142 0.0 5.2 0.00 0.00 0.00 45 1010.5
20260831001525 92 104 0.9 6.1 0.00 0.00 0.00 43 1010.5
20260831000036 93 127 1.7 7.0 0.00 0.00 0.00 41 1010.5
20260830234524 93 90 2.6 6.1 0.00 0.00 0.00 42 1010.5
20260830233033 93 176 3.5 15.6 0.00 0.00 0.00 42 1010.5
20260830231529 93 144 0.9 7.0 0.00 0.00 0.00 44 1010.5
20260830230021 93 92 4.3 8.7 0.00 0.00 0.00 44 1010.6
20260830224520 96 126 3.5 7.8 0.00 0.00 0.00 43 1010.6
20260830223020 95 199 3.5 8.7 0.00 0.00 0.00 42 1010.6
20260830221516 94 159 2.6 7.0 0.00 0.00 0.00 43 1010.8
20260830220015 94 151 2.6 7.0 0.00 0.00 0.00 44 1010.7
20260830214513 94 184 1.7 7.8 0.00 0.00 0.00 44 1010.9
20260830213012 94 104 3.5 8.7 0.00 0.00 0.00 42 1011.1
20260830211514 96 167 2.6 9.6 0.00 0.00 0.00 44 1011.2
20260830210007 94 156 2.6 12.2 0.00 0.00 0.00 43 1011.4
20260830204506 94 156 1.7 8.7 0.00 0.00 0.00 45 1011.7
20260830203005 95 67 3.5 8.7 0.00 0.00 0.00 42 1011.9
20260830201502 95 257 4.3 12.2 0.00 0.00 0.00 44 1012.1
20260830200058 94 166 2.6 7.8 0.00 0.00 0.00 46 1012.3
20260830194556 94 171 1.7 7.0 0.00 0.00 0.00 46 1012.7
20260830193054 94 121 3.5 8.7 0.00 0.00 0.00 44 1012.8
20260830191551 93 182 3.5 7.8 0.00 0.00 0.00 48 1013.1
20260830190049 93 113 4.3 11.3 0.00 0.00 0.00 48 1013.2
20260830184546 92 109 2.6 7.0 0.00 0.00 0.00 49 1013.4
20260830183044 92 252 1.7 5.2 0.00 0.00 0.00 50 1013.6
20260830181539 91 261 1.7 7.8 0.00 0.00 0.00 52 1014.0
20260830180038 91 144 3.5 10.4 0.00 0.00 0.00 50 1014.3
20260830174535 90 102 2.6 9.6 0.00 0.00 0.00 52 1014.4
20260830173032 90 175 1.7 5.2 0.00 0.00 0.00 55 1014.5
20260830171529 89 277 1.7 7.0 0.00 0.00 0.00 59 1014.7
20260830170025 88 144 3.5 7.8 0.00 0.00 0.00 59 1015.0
20260830164547 87 252 1.7 8.7 0.00 0.00 0.00 62 1015.0
20260830163026 86 251 3.5 7.0 0.00 0.00 0.00 64 1015.2
20260830161518 85 251 2.6 7.0 0.00 0.00 0.00 63 1015.0
20260830160016 85 168 1.7 7.0 0.00 0.00 0.00 65 1015.1
20260830154514 84 205 4.3 8.7 0.00 0.00 0.00 66 1015.0
20260830153011 83 183 1.7 6.1 0.00 0.00 0.00 70 1015.0
20260830151509 82 169 1.7 5.2 0.00 0.00 0.00 72 1015.0
20260830150006 81 222 2.6 6.1 0.00 0.00 0.00 74 1015.0
20260830144504 80 116 1.7 4.3 0.00 0.00 0.00 76 1015.1
20260830143003 79 293 0.9 6.1 0.00 0.00 0.00 80 1015.1
20260830141502 78 264 1.7 7.0 0.00 0.00 0.00 82 1015.1
20260830140001 77 107 0.0 2.6 0.00 0.00 0.00 85 1015.2
20260830134559 76 203 0.0 3.5 0.00 0.00 0.00 86 1015.0
20260830133058 75 116 0.0 2.6 0.00 0.00 0.00 89 1015.0
20260830131556 74 121 0.0 0.0 0.00 0.00 0.00 91 1014.8
20260830130106 72 121 0.0 0.0 0.00 0.00 0.00 91 1014.7
20260830124555 72 121 0.0 0.0 0.00 0.00 0.00 91 1014.7
20260830123109 72 121 0.0 0.0 0.00 0.00 0.00 90 1014.5
20260830121555 72 121 0.0 0.0 0.00 0.00 0.00 90 1014.4
20260830120054 72 156 0.0 0.0 0.00 0.00 0.00 90 1014.4
20260830114604 72 156 0.0 0.9 0.00 0.00 0.00 90 1014.4
20260830113049 72 175 0.0 2.6 0.00 0.00 0.00 88 1014.5
20260830111548 72 100 0.0 1.7 0.00 0.00 0.00 89 1014.4